Погода Саран-Пауль

Погода Саран-Пауль : погода сейчас, прогноз погоды и архив. Всё, что Вы хотите узнать о погоде Саран-Пауль!

Хотите узнать прогноз погоды Саран-Пауль? Тогда Вам сюда: Погода Саран-Пауль

Поиск расширенной информации на нашем сайте:

Другие новости

Новости СМИ2

Главная страница сайта

Новости сайта

02.10.2013

Напоминаем, что на нашем новом сайте вы можете получить высокодетализированные прогнозы погоды по пунктам России, СНГ и мира (включающие важные для авиации метеовеличины, такие как направление и скорость ветра, видимость, явления погоды, количество и форма облачности, нижняя и верхняя граница облачности), а также ознакомиться с разнообразными материалами по авиационной метеорологии и подборкой полезных ссылок на эту тему.

Сайт Метеоцентр.Азия посвящён разработке технологий оптимизации авиаметеорологического обслуживания, включая проектирование и перспективное создание нескольких автоматизированных авиаметеорологических систем:
- система выпуска высокодетальных прогностических карт явлений погоды для нижнего воздушного пространства по России и ближнему зарубежью;
- система верификации прогнозов TAF (выпускаемых синоптиками официальных АМСГ РФ и ближнего зарубежья) и AUTOTAF (выпускаемых сайтом Метеоцентр.Азия) - выявление ошибок, онлайн-сопоставление с фактической погодой METAR, автоматическое внесение коррективов в прогнозы при резком отклонении фактической погоды от прогноза, подсчёт оправдываемости прогнозов по элементам и в целом;
- система обработки, анализа и отображения авиаметеорологической информации для применения провайдерами метеорологической информации.

Рекомендуем: производство дверей клин на сайте klinskiedveri.ru

Погода Саран-Пауль - сегодня

Время (UTC), дата Ветер
(°,м/с) 
Видим.   Явления Облачность Т
(°С)
Тd
(°С)
f(%) Тe
(°С)
Pmin
(гПа)
dP
(гПа)
Po
(мм)
O2
(г/м3)
Тmin Tmax R s Состояние
почвы
18 21.02.17 280 (З) 50000 м    6/0 средняя, верхняя 
[Ac lent|Ci fib]
-31.1 -34.5 72 -32  997.9  1.7  745  341           
21 21.02.17 250 (З) 9000 м  слаб. ливневой снег  10/8 600 м кучево-дожд., средняя 
[Cb cap|Ac trans]
-27.5 -30.6 75 -31  998.9  1.1  746  336           
00 22.02.17 320 (СЗ) 9000 м  слаб. ливневой снег  10/6 600 м кучево-дожд., средняя 
[Cb cap|Ac lent]
-26.6 -29.7 75 -27  999.8  0.9  747  335           
03 22.02.17 350 (С) 9000 м  слаб. ливневой снег  10/10 600 м кучево-дожд. 
[Cb cap]
-24.1 -27.1 76 -27  999.9  0.2  747  332  -32.2    0.2  34  равномерный
сухой снег
100% 
06 22.02.17 350 (С) 10 км  слаб. снег{ливн. осадки}  10/0 средняя 
[As op]
-21.8 -24.8 77 -25  999.6  -0.3  747  329           
09 22.02.17 360 (С) 4000 м  слаб. снег  10/0 средняя 
[As op]
-18.2 -21.1 78 -21  998.5  -1  746  324           
12 22.02.17 010 (С) 4000 м  слаб. снег  10/0 средняя 
[As op]
-18.6 -21.3 79 -23  997.7  -0.8  745  324           
15 22.02.17 010 (С) 6000 м  слаб. снег  10/0 средняя 
[As op]
-19 -21.5 81 -22  997.3  -0.4  745  324    -17.9     
18 22.02.17 260 (З) 4600 м  слаб. снег  10/0 средняя 
[As op]
-19.6 -21.9 82 -20  997.2  -0.1  745  325           
21 22.02.17 200 (Ю) 25000 м  {снег}  6/0 средняя 
[Ac lent]
-25 -27.8 77 -26  998.5  1.2  746  333           
00 23.02.17 170 (Ю) 50000 м  {снег}  3/0 средняя 
[Ac lent]
-27.9 -30.8 76 -29  1000.1  1.6  747  337           
03 23.02.17 280 (З) 50000 м    ясно 
-28.4 -31.5 75 -29  1002.2  2.1  749  339  -30.2    0.9  39  равномерный
сухой снег
100% 
06 23.02.17 310 (СЗ) 20000 м    ясно 
-22.6 -25.4 78 -26  1004.9  2.7  751  332  -30.2         
09 23.02.17 тихо ()   20000 м    ясно 
-13.8 -17.9 71 -14  1006.8  2.1  752  321           
12 23.02.17 100 (В) 20000 м    ясно 
-11.9 -17.5 63 -12  1008.6  2.1  754  319           
15 23.02.17 тихо ()   50000 м    ясно 
-25.3 -27.9 79 -25  1010.8  755  337    -10       
18 23.02.17 310 (СЗ) 50000 м    ясно 
-32.1 -35.6 71 -33  1012.9  757  347           
21 23.02.17 300 (СЗ) 50000 м    ясно 
-35.1 -39.1 67 -36  1014.5  1.5  758  352           
00 24.02.17 260 (З) 50000 м    ясно 
-34.1 -37.6 71 -38  1016.5  759  352           
03 24.02.17 320 (СЗ) 50000 м    8/0 средняя, верхняя 
[Ac trans|Ci sp]
-25 -27.8 77 -26  1018.2  1.9  761  339  -35.3      39  равномерный
сухой снег
100% 
06 24.02.17 010 (С) 20000 м    8/0 средняя, верхняя 
[Ac lent|Ci fib]
-20 -22.8 78 -23  1019.5  1.4  762  333           
09 24.02.17 360 (С) 20000 м    10/0 средняя, верхняя 
[Ac lent|Cs]
-16.4 -21 68 -19  1020.1  0.6  762  328           
12 24.02.17 360 (С) 20000 м    10/3 600 м кучево-дожд., средняя 
[Cb cap|Ac lent]
-16.5 -20.5 71 -19  1019.8  -0.4  762  328           
15 24.02.17 020 (С) 9000 м  слаб. ливневой снег  10/10 600 м кучево-дожд. 
[Cb cap]
-17.4 -20.6 76 -21  1019.9  0.2  762  330    -16.4  0.3     
18 24.02.17 010 (С) 9000 м  слаб. ливневой снег  10/10 600 м кучево-дожд. 
[Cb cap]
-18.5 -21.3 79 -21  1020.2  0.3  762  331           
Время (UTC), дата Ветер
(°,м/с) 
Видим.   Явления Облачность Т
(°С)
Тd
(°С)
f(%) Тe
(°С)
Pmin
(гПа)
dP
(гПа)
Po
(мм)
O2
(г/м3)
Тmin Tmax R s Состояние
почвы

Для получения пояснительной информации подведите курсор к названию столбца.

ПОГОДА Саран-Пауль - архив

Всё, что Вы хотите узнать о погоде Саран-Пауль - удобно и подробно!

Выберите нужную дату (начиная с 1 января 2015* года) и нажмите кнопку "Найти".
Будут отображены архивные сводки погоды по пункту Саран-Пауль, начиная с указанной даты.


Отображать данные в формате CSV (для использования в таблицах Excel)


Внимание! Наш архив погоды предназначен исключительно для личного некоммерческого использования в познавательных целях. Если Вам необходимы официальные справки о состоянии погоды (для производственных, юридических, коммерческих и т.п. целей), обращайтесь в органы Росгидромета.

*Примечание: данная дата относится к архиву по метеостанциям СССР (Россия, СНГ, Балтия).
Архив по метеостанциям Зарубежной Европы и Азии (кроме Китая) хранится 10 дней, по другим регионам земного шара (Китай, Африка, Америка, Австралия, Океания) - 1 день.

Саран-Пауль - район местоположения метеостанции


Название, широта, долгота, высота метеостанции:
Саран-Пауль 64.3°ш. 60.9°д. 29 м над ур. моря [Российская Федерация]

Дополнительная информация

В oтличие oт бoльшинства пoгoдных сайтoв мы публикуем пoдрoбную метеoинфoрмацию в детальнoм прoфессиoнальнoм фoрмате.

Характеристики температуры и влажнoсти вoздуха измеряются на высoте 2 м в тени вдали oт зданий и деревьев.
Скoрoсть ветра измеряется на высoте 10 м (на урoвне рoста челoвека скoрoсть ветра ниже в 1.5-2 раза). Если метеoстанция нахoдится в гoрoде или в лесу, тo скoрoсть ветра занижена на 2-4 м/с пo сравнению с oткрытым местoм. Скoрoсть ветра над акватoриями крупных рек и oзёр, а также на вершинах хoлмoв на 2-5 м/с выше, чем в oбычных услoвиях.
Атмoсфернoе давление в разных тoчках местнoсти мoжет значительнo oтличаться oт давления на метеoстанции, в зависимoсти oт услoвий рельефа (при пoдъёме на 10 м давление пoнижается примернo на 1 мм рт.ст.).